sat.trackr.live / text

‹ back to catalog

STARLINK-2049

NORAD 47356 · 2021-005H

PAYLOAD ACTIVE UNKNOWN

§ Identity

Operator
Country
US
Launch date
2021-01-20
Launch site
AFETR
Launch vehicle
Mass (kg)
RCS (m²)

Purposes: comms

External: N2YO · Heavens-Above · Gunter

§ Orbital elements

Epoch: 2026-09-15T22:46:50.910240Z

Period
94.01 min
Inclination
53.1579°
Eccentricity
0.0001088
Mean motion
15.31713412 rev/d
Perigee alt
470.0 km
Apogee alt
471.4 km
Semi-major
6,848.8 km
B*
2.4122e-5
RAAN
231.5471°
Arg perigee
87.1046°
Mean anomaly
273.0080°
Rev number
31,253

§ Raw data

STARLINK-20491 47356U 21005H   26258.94920035  .00000384  00000+0  24122-4 0  99972 47356  53.1579 231.5471 0001088  87.1046 273.0080 15.31713412312535

JSON: /api/v1/satellites/47356 · /tle

For live sub-satellite position, see the globe view (requires WebGL).

§ Visibility from observer

Set your observer location to see the next 7 days of passes ≥ 10°. The values pass through the URL so the page stays shareable.

No JS? Fill the form by hand. The geolocation button needs JavaScript.